Weather in Andrianovichi

Russia / Sverdlovsk Oblast     59°55′44″N   60°36′09″E
temp.,
°C
wind,
m/s
gust,
m/s
humid.,
%
clouds,
%
prec.,
mm/h
press.,
hPa
HPBL,
m
24 may, tue
tue2423:00+5sw128793 0.3 100345
02:00+4n1192100 0.4 100515
05:00+4ne249096 0.4 1005138
08:00+7e127796 0.0 1007335
11:00+10sse127196 0.1 10081006
14:00+13e2356100 0.3 10081668
17:00+12ese4566100 0.4 1010831
20:00+11ese2676100 0.1 1011297
25 may, wed
wed2523:00+7ese1192100 0.1 101210
02:00+7ene2391100 0.0 101375
05:00+7nne3795100 0.2 1012236
08:00+8ne41199100 3.8 1010459
11:00+11ene3998100 5.8 1009499
14:00+16e279276 0.1 1008540
17:00+18e1384100 2.7 100586
20:00+18s61467100 0.8 1005857
26 may, thu
thu2623:00+17ese51470100 0.8 1003547
02:00+14sse51278100 0.1 1004794
05:00+10s4894100 0.1 1005363
08:00+11ssw3583100 0.0 1006397
11:00+9sse3594100 4.7 1007451
14:00+9sse4894100 3.0 1009686
17:00+13ssw4666100 3.1 10091532
20:00+10w596399 0.0 1010809
27 may, fri
fri2723:00+6wsw2280100 0.0 101132
02:00+6w3879100 0.0 1010268
05:00+5w3882100 0.0 1010252
08:00+9w46592 0.0 1010671
11:00+13w35465 0.0 10091585
14:00+15wsw364074 0.0 10092148
17:00+15sw464777 0.0 10091997
20:00+11sw4771100 0.0 1011585
28 may, sat
sat2823:00+8sse2285100 0.0 101118
02:00+7sse239353 0.0 101156
05:00+6sse279296 0.0 1011148
08:00+13sse376821 0.0 1011415
11:00+18s485228 0.0 10101764
14:00+17s375770 0.1 10101003
17:00+18s475089 0.1 10111580
20:00+16sse376717 0.1 1011302